RH
49 51 56 61 63 63 61 58 56 54 50 46 41 37 35 35 35 35 37 42 44 46 47 47 46 44 42 41 40 40 40 41 42 42 43 43 43 44 45 46 47 48 49 50 50 51 53 55 57 59 60 61 61 60 59 57 55 54 52 52 53 54 55 56 57 59 60 63 67 72 77 79 80 79 77 74 74 76 81 81 80 80 80 79 78 74
49 51 55 60 63 63 63 61 59 58 55 51 45 40 36 35 35 35 38 42 44 44 45 46 47 47 46 44 43 43 42 43 43 43 44 44 44 44 44 45 46 47 48 48 48 49 51 54 57 59 62 64 64 63 61 60 58 56 55 55 55 56 57 59 60 62 65 67 70 73 76 78 79 79 76 74 75 78 82 82 81 80 79 78 77 74
46 49 52 57 61 63 64 64 62 61 61 56 50 44 39 37 36 37 39 43 44 44 44 45 46 47 47 47 45 44 44 43 43 44 44 44 44 44 44 45 46 46 47 47 47 48 50 53 57 60 64 67 68 68 67 65 62 60 58 58 58 60 62 65 68 70 72 74 75 76 76 76 77 77 76 74 75 78 81 81 80 79 79 77 74 71
42 45 49 55 59 62 64 65 65 65 64 59 54 48 43 41 40 39 41 44 45 45 45 45 46 47 47 47 46 45 44 43 43 44 44 45 45 45 45 45 45 46 47 47 48 48 50 53 57 61 64 68 70 72 72 70 68 65 63 62 62 64 68 72 75 78 79 79 78 77 75 74 75 75 75 74 76 78 81 80 80 78 77 74 71 67
38 41 45 52 56 59 61 64 65 66 69 64 58 52 49 47 45 44 44 48 49 48 46 47 47 48 49 49 48 47 46 44 44 44 44 45 45 46 45 45 45 45 46 47 48 50 52 56 60 63 65 68 71 74 75 74 73 71 69 67 67 69 73 76 77 78 79 78 77 76 74 73 74 74 75 74 75 77 79 79 79 78 76 73 69 65
35 37 40 46 51 56 59 62 64 66 67 64 60 56 52 52 51 49 47 53 54 53 50 49 49 49 50 50 50 49 48 46 45 45 45 46 47 47 47 46 45 45 46 47 49 51 54 60 64 67 67 68 69 71 74 75 76 75 74 72 71 72 74 75 75 75 75 74 74 73 73 73 74 74 75 74 74 75 77 77 77 77 75 73 69 65
34 34 36 39 45 51 56 60 62 63 63 64 64 62 55 56 55 54 51 55 58 59 57 53 51 51 51 51 51 51 51 50 48 47 47 48 48 49 48 48 47 47 47 48 49 52 57 62 67 69 69 68 68 69 70 71 73 74 74 73 72 72 72 71 70 69 69 69 70 70 71 72 73 74 74 74 73 73 74 74 75 75 74 72 69 66
33 33 33 34 39 46 53 57 60 62 63 64 67 67 61 59 58 58 58 58 60 61 62 59 56 54 52 53 53 54 54 53 52 51 50 51 52 52 52 51 51 50 50 50 51 54 59 64 67 70 69 69 69 69 69 69 69 70 70 71 71 71 69 68 67 65 65 66 66 67 68 69 70 72 72 72 72 72 72 72 72 71 70 69 67 65
34 32 31 32 35 41 49 54 58 61 63 64 66 67 67 63 61 62 63 62 61 61 62 62 61 58 55 54 55 57 57 56 56 55 53 54 54 55 56 55 55 55 55 55 56 58 62 66 68 70 70 70 70 70 70 69 69 69 71 74 76 75 72 69 66 64 64 64 64 64 65 66 67 68 69 69 69 69 69 68 68 67 66 64 63 62
35 32 30 30 33 38 44 51 55 59 62 64 67 67 66 63 64 65 66 63 62 62 63 63 62 61 58 56 57 59 60 60 59 58 57 57 57 57 57 57 58 58 59 60 62 64 67 69 71 72 72 71 71 71 71 71 71 74 79 82 84 84 81 75 70 66 65 64 63 64 64 65 65 65 65 65 65 65 66 65 65 64 62 61 60 60
36 33 29 29 31 35 41 47 51 55 59 64 70 72 67 66 66 67 67 62 60 61 64 64 63 62 61 60 60 61 62 62 61 60 60 58 58 58 57 58 58 59 60 61 63 65 68 71 72 73 73 73 74 74 73 74 77 81 87 87 88 88 86 82 77 72 69 68 67 66 66 66 66 65 65 64 64 65 67 69 69 68 66 63 60 59
35 33 30 29 30 33 38 44 48 52 56 63 70 75 74 72 71 71 69 64 60 58 61 63 64 63 63 62 62 62 63 63 63 63 62 61 60 59 59 59 59 59 60 61 62 64 66 68 70 72 73 74 75 76 76 77 81 86 90 89 89 88 88 85 80 77 75 73 71 70 69 69 68 67 66 65 65 67 71 74 75 73 72 69 64 61
32 31 29 28 29 32 37 41 46 49 53 59 66 74 79 77 75 74 75 70 63 57 55 59 62 64 64 64 63 63 63 63 64 64 63 62 61 61 61 61 60 60 60 60 61 62 63 64 66 68 70 72 74 75 76 78 81 85 89 89 89 88 87 84 82 80 78 77 75 74 73 72 70 69 68 66 67 69 75 76 76 75 74 72 68 63
29 28 28 27 28 30 35 39 43 47 51 55 63 71 80 81 80 79 79 76 69 61 53 53 57 62 65 66 65 64 63 63 64 65 64 63 61 61 60 61 62 61 60 59 60 61 61 61 62 63 64 66 68 70 72 74 77 81 85 86 85 84 83 83 82 80 79 78 76 75 74 73 73 72 70 68 69 72 77 77 76 76 75 73 69 66
30 28 26 26 27 29 33 37 41 45 50 54 63 73 81 84 85 84 83 81 76 69 59 53 53 57 61 64 66 66 65 64 65 66 67 66 64 62 60 61 61 61 60 60 60 61 62 62 61 61 61 61 62 63 64 67 70 73 76 78 79 79 79 79 79 78 77 77 75 74 73 73 73 72 71 70 71 73 77 77 77 77 76 73 70 68
32 28 26 26 27 29 32 36 39 43 49 55 65 75 82 84 86 86 86 85 81 75 66 59 56 56 59 62 64 65 66 66 68 69 68 69 68 66 62 63 62 62 61 61 63 64 64 64 64 63 62 61 59 58 58 59 61 64 66 69 70 72 73 72 72 72 72 73 73 72 72 72 72 72 70 69 70 71 74 74 75 75 74 73 71 70
37 35 33 30 30 33 39 39 40 43 49 59 68 75 77 82 84 85 85 86 85 79 70 64 61 60 61 63 64 65 65 66 67 68 70 72 71 70 68 67 67 66 65 64 64 64 65 65 66 66 66 64 61 59 56 55 55 56 58 59 61 62 64 64 65 66 66 67 68 69 70 71 72 72 71 69 69 70 70 71 71 71 71 71 70 69
39 40 41 40 40 40 44 43 45 47 49 59 70 76 75 78 80 83 86 87 86 82 75 71 69 67 66 67 66 65 65 67 68 69 70 71 71 71 71 71 71 70 69 67 66 65 65 64 64 65 66 66 65 64 61 58 56 54 54 53 54 55 57 58 60 61 62 63 65 67 67 69 70 71 72 72 72 71 70 69 69 68 69 69 68 67
42 42 45 48 49 49 48 48 48 49 49 53 63 73 76 77 78 81 86 87 86 84 80 79 78 76 73 72 70 68 66 66 67 70 73 74 74 73 72 72 71 71 71 69 67 65 64 63 63 63 64 65 66 66 65 64 61 58 56 54 53 53 53 55 57 60 61 62 63 65 66 68 69 70 71 73 73 72 71 70 68 67 66 66 64 62
49 49 53 56 56 54 54 53 54 55 53 51 55 64 72 76 79 81 85 86 87 86 84 83 83 82 81 79 77 75 71 68 67 69 73 75 77 77 77 75 73 71 70 69 67 65 63 62 60 60 60 61 62 64 64 64 64 62 60 58 56 55 53 54 55 58 60 61 62 63 65 67 68 69 71 71 72 72 72 71 71 69 66 62 59 55
53 54 56 61 64 64 64 61 58 55 54 52 53 58 66 72 75 78 84 87 87 86 86 86 86 85 85 84 82 80 76 72 71 72 74 75 77 79 82 80 77 72 68 66 65 64 63 62 60 59 58 59 59 60 61 62 62 62 62 60 59 57 55 53 53 54 54 55 56 58 60 63 65 66 67 68 68 70 72 72 72 71 69 64 59 54
55 56 58 64 68 70 71 68 63 59 55 53 55 59 69 75 79 82 83 86 87 86 86 86 87 87 86 85 83 82 79 75 73 73 73 75 76 79 84 82 79 74 68 64 62 61 61 60 60 59 59 59 59 59 59 59 60 60 61 61 60 60 59 57 56 54 53 52 52 52 54 56 58 60 62 63 63 65 68 71 71 71 69 67 63 59
55 58 60 64 69 72 73 71 66 60 56 56 58 63 74 81 84 84 84 87 87 86 86 87 87 87 86 85 85 84 83 78 75 74 74 75 78 81 82 80 78 76 70 64 61 59 58 58 58 59 59 58 58 58 58 58 59 59 59 60 61 62 62 62 61 59 57 55 53 52 51 52 53 54 56 56 57 57 59 63 65 67 67 65 63 60
55 57 61 65 68 71 73 71 67 62 59 62 67 74 82 85 86 86 87 87 87 87 87 87 87 87 86 85 85 85 83 80 77 76 76 77 79 80 81 78 76 74 71 66 62 60 57 56 56 56 56 56 56 56 57 57 57 58 59 60 61 62 63 64 64 64 62 61 59 56 54 53 52 52 52 52 51 51 51 53 56 59 61 61 60 59
63 60 60 63 67 70 73 72 68 64 62 68 75 80 84 84 85 85 86 87 87 87 87 87 87 86 85 85 85 84 82 80 79 77 76 79 81 82 81 78 75 72 71 68 65 62 59 58 58 57 56 55 54 54 55 56 57 58 59 61 63 64 65 66 67 67 67 66 65 63 61 58 57 55 54 53 52 51 50 50 51 52 55 56 57 56
78 73 67 64 65 68 71 71 69 66 66 74 79 82 84 84 85 85 85 86 86 86 86 87 87 86 84 85 85 86 85 84 81 79 77 79 82 83 81 78 74 72 72 70 67 65 63 64 64 63 59 57 55 54 54 54 56 58 60 63 66 67 68 69 70 70 71 71 70 69 67 65 63 61 60 59 58 57 56 55 54 54 54 54 54 54
84 82 79 73 69 67 68 69 69 69 71 79 83 85 86 84 85 86 85 85 86 86 86 86 86 85 84 86 87 87 87 86 84 81 79 80 82 83 81 77 74 72 72 71 69 68 68 69 69 67 64 61 59 57 56 56 56 57 60 63 66 69 70 71 72 73 73 73 74 73 72 70 69 67 65 65 64 65 65 64 64 62 61 59 58 57
85 84 84 82 78 74 70 68 68 70 74 81 85 86 87 84 84 85 85 84 85 86 85 85 85 85 85 87 87 86 87 86 84 82 81 81 82 82 80 78 76 74 73 72 71 71 72 72 71 69 66 64 63 61 59 59 58 59 59 61 64 66 69 70 71 72 73 73 73 73 73 72 71 69 68 66 66 67 68 69 69 68 67 65 64 63
85 85 85 84 84 83 80 74 70 69 74 81 84 86 87 86 86 86 86 85 85 86 85 85 85 85 85 86 85 86 86 85 84 82 81 80 80 82 82 81 78 76 75 75 74 74 75 75 74 72 69 67 65 64 62 62 61 60 60 61 62 64 66 68 69 70 71 71 71 71 71 70 70 69 67 66 65 64 65 66 67 67 66 66 65 64
85 86 86 85 85 85 85 83 79 75 74 79 82 85 86 86 86 86 86 85 86 86 85 84 84 85 85 84 84 84 83 82 82 82 80 78 78 81 84 83 81 78 77 77 76 76 77 78 77 75 71 69 67 66 64 63 62 61 61 61 62 63 64 65 66 68 69 69 70 70 70 70 69 68 67 65 63 62 61 61 62 62 63 63 64 64
85 86 86 85 85 85 85 85 84 83 80 81 82 84 86 85 85 85 85 85 86 85 84 83 83 82 81 80 79 77 75 75 78 80 80 77 77 80 84 83 81 80 79 77 77 76 76 78 78 76 72 70 68 66 65 64 63 62 61 61 62 62 63 64 64 65 66 68 68 69 69 69 68 68 66 65 63 61 60 59 58 58 58 59 60 61
85 86 86 86 85 85 85 85 85 86 85 85 85 85 86 86 85 85 84 85 85 85 84 84 82 81 79 76 74 72 72 72 75 78 80 78 79 81 83 81 80 81 81 79 78 77 76 77 77 76 73 71 70 68 67 66 65 64 63 63 63 63 63 64 64 64 65 66 67 67 67 67 67 66 66 65 64 63 61 60 59 57 56 56 56 56
85 86 86 86 85 85 85 85 85 85 86 86 86 86 87 86 86 86 85 85 85 85 85 85 85 83 81 78 76 76 78 79 80 80 82 82 83 84 84 81 81 81 83 81 80 80 79 78 77 75 74 73 72 71 70 69 68 67 66 65 65 65 65 65 65 65 66 66 67 67 67 67 67 67 66 66 66 65 65 64 63 62 60 59 58 57
85 86 86 86 85 85 85 85 85 85 85 85 86 86 86 86 87 87 86 86 86 86 86 86 86 86 85 84 83 83 85 85 85 85 85 85 86 86 86 83 83 83 85 84 83 82 83 82 80 78 76 75 74 73 72 71 71 70 70 69 69 68 68 68 68 68 68 69 69 69 69 68 68 68 68 68 68 68 67 67 67 66 65 65 64 63
85 85 85 86 86 85 85 85 85 85 85 85 85 86 86 86 86 86 86 86 86 86 86 86 86 86 86 86 86 86 87 86 86 86 86 86 86 86 86 84 84 84 85 85 84 84 84 84 83 82 80 79 77 76 74 73 73 73 73 72 72 72 72 71 71 71 71 71 71 70 70 69 69 68 68 68 68 68 68 68 68 68 68 68 68 68
83 84 84 85 85 85 85 85 85 85 85 85 85 85 85 85 86 86 86 86 86 86 86 86 86 86 86 86 86 86 87 86 86 86 86 86 86 86 86 84 83 83 84 84 84 84 84 85 85 84 83 82 81 79 78 77 76 76 76 76 76 75 75 74 74 73 73 73 72 71 71 70 69 68 68 68 68 68 68 68 68 68 68 69 69 69
80 81 83 83 84 84 85 84 85 84 84 84 85 85 85 85 85 85 85 85 85 85 86 86 86 86 86 86 86 86 86 86 86 86 85 85 85 86 85 84 83 82 81 82 82 83 84 84 85 85 84 83 83 82 82 81 81 80 80 80 79 79 79 78 77 76 76 75 74 73 72 70 69 68 68 68 68 69 69 69 69 70 70 70 69 69
77 79 80 81 82 83 83 83 84 84 84 85 85 85 85 85 85 85 85 85 85 85 85 85 85 86 86 86 86 86 86 86 86 85 84 85 85 85 85 84 83 82 80 79 80 81 82 83 83 84 84 84 83 83 83 84 83 82 82 82 82 82 82 82 81 81 80 79 78 76 74 72 70 69 69 69 69 70 70 71 71 71 71 71 70 69
73 75 76 78 80 81 81 82 83 84 84 85 85 85 85 85 85 85 85 85 85 84 84 84 85 85 85 85 85 85 85 85 85 85 84 84 84 84 84 84 83 82 80 79 78 79 79 80 81 81 82 83 83 83 84 83 83 83 83 84 85 85 85 85 85 84 83 82 81 79 77 75 74 73 72 72 72 73 73 74 74 74 74 73 72 71
71 72 73 75 77 79 80 81 81 82 83 84 85 85 85 85 85 85 85 85 84 84 83 83 84 84 84 84 85 85 85 84 84 83 83 83 83 83 83 83 82 81 80 79 78 78 78 78 78 79 79 80 81 82 82 82 82 82 83 84 85 86 86 86 86 85 84 82 81 80 78 77 76 76 76 77 77 77 77 78 78 78 77 76 76 75
69 70 71 72 74 76 78 79 79 80 81 82 83 84 84 85 85 85 85 85 85 84 84 83 83 84 84 84 84 85 84 84 83 82 82 81 81 81 81 80 80 80 79 78 78 77 78 78 78 78 79 79 80 80 80 80 80 81 82 83 83 83 84 84 84 83 82 81 80 79 78 77 77 77 77 78 79 79 79 79 80 80 79 79 78 78
68 69 69 70 72 74 76 77 78 79 79 80 81 82 83 83 84 84 85 85 85 85 85 85 84 84 84 84 85 85 85 84 84 82 81 81 80 80 80 80 79 79 78 78 78 78 77 77 78 78 79 80 81 81 81 81 80 81 81 80 80 80 81 81 81 81 80 80 79 78 77 76 76 75 75 76 77 78 78 78 78 78 79 79 78 78
67 67 68 69 70 72 73 75 76 77 78 78 78 79 80 81 82 83 83 84 84 85 85 85 85 84 84 84 85 85 85 85 84 83 82 81 81 81 81 80 80 79 79 78 78 78 77 77 77 78 78 80 80 80 80 81 81 81 80 79 78 79 79 78 77 78 78 78 78 78 78 76 75 74 74 74 75 76 76 76 77 77 78 77 77 76
66 67 67 68 69 69 71 72 74 75 76 76 76 77 77 78 80 81 81 82 82 83 84 84 84 84 84 84 84 84 85 85 84 84 83 82 82 81 81 81 81 81 81 80 79 78 78 77 76 76 77 78 79 79 80 81 81 80 79 78 77 77 76 75 75 75 75 75 75 75 76 75 74 73 73 73 73 73 74 75 76 77 77 76 75 74
66 66 66 67 67 68 69 70 72 73 74 75 75 75 75 76 77 78 79 79 80 81 82 82 83 83 84 84 84 84 84 84 84 84 84 83 82 82 81 81 81 81 81 80 79 78 77 77 76 75 76 76 77 78 78 78 78 77 76 75 74 73 72 71 71 71 71 71 72 73 74 74 74 73 72 71 71 72 73 74 75 75 75 74 73 71
66 66 66 67 67 67 68 69 70 71 72 73 74 74 74 74 74 75 76 77 77 78 79 79 80 81 82 82 82 83 83 84 84 84 84 83 82 82 81 81 81 80 80 79 77 76 75 75 75 75 75 74 73 73 73 73 72 72 71 70 70 69 68 67 67 66 66 68 70 73 75 75 75 74 73 72 71 71 72 72 73 73 73 72 70 69
67 66 67 66 67 67 67 67 68 69 70 71 73 73 74 74 73 73 73 74 75 75 75 76 77 77 78 78 79 81 82 83 83 83 83 83 82 82 81 81 80 79 78 76 75 74 73 73 73 73 73 71 70 69 67 67 67 66 65 65 65 64 64 63 62 62 62 65 70 73 75 76 76 75 74 73 72 71 71 70 70 69 69 68 67 65
66 67 67 67 67 67 67 67 67 68 69 69 70 71 72 73 73 72 72 72 72 72 73 73 73 73 74 74 75 76 78 80 81 82 82 82 82 81 81 80 80 78 77 75 73 72 71 71 71 70 69 68 67 65 64 63 63 62 62 62 62 62 61 60 59 59 60 64 68 71 73 74 73 73 73 73 72 71 69 68 68 67 66 65 63 61
63 65 66 67 67 67 67 67 67 68 68 68 69 69 70 71 71 71 71 71 71 71 71 70 70 70 70 70 70 72 73 75 77 78 80 80 80 80 80 80 78 77 75 73 72 70 69 68 68 67 65 64 63 62 61 61 60 60 60 61 61 60 60 59 59 59 61 64 67 69 70 70 70 70 70 70 69 68 67 66 65 64 63 62 60 58
59 61 62 64 65 66 66 67 67 67 67 67 68 68 68 69 69 70 70 70 70 70 69 69 68 68 68 68 67 68 69 70 71 72 74 75 76 77 77 77 76 75 74 72 70 69 67 66 64 63 62 61 60 60 59 59 59 59 59 59 59 59 59 59 59 60 63 66 69 70 70 69 69 68 68 67 66 65 64 64 63 61 60 60 58 57
56 57 58 60 61 63 64 65 65 66 66 66 66 67 67 67 68 68 69 69 69 69 68 68 68 67 67 66 65 65 65 66 66 67 68 69 70 70 71 71 70 70 70 69 68 66 65 63 62 61 59 59 59 58 58 58 57 57 57 58 58 59 59 59 60 63 66 69 70 71 71 70 68 67 67 66 65 64 63 62 60 59 58 58 57 56